Time,TemperatureF,DewpointF,PressureIn,WindDirection,WindDirectionDegrees,WindSpeedMPH,WindSpeedGustMPH,Humidity,HourlyPrecipIn,Conditions,Clouds,dailyrainin,SoftwareType,DateUTC
2013-03-02 00:00:00,48.2,7.8,24.60,South,180,0.0,0.0,19,0.00,,,0.00,WUHU216WMR200,2013-03-02 08:00:00,
2013-03-02 00:05:00,48.4,8.0,24.60,West,270,0.0,0.9,19,0.00,,,0.00,WUHU216WMR200,2013-03-02 08:05:00,
2013-03-02 00:10:00,48.2,7.8,24.60,West,270,0.0,0.9,19,0.00,,,0.00,WUHU216WMR200,2013-03-02 08:10:00,
2013-03-02 00:15:00,48.2,7.8,24.60,West,270,0.0,0.0,19,0.00,,,0.00,WUHU216WMR200,2013-03-02 08:15:00,
2013-03-02 00:20:00,48.2,7.8,24.60,West,270,0.0,0.0,19,0.00,,,0.00,WUHU216WMR200,2013-03-02 08:20:00,
2013-03-02 00:25:00,48.2,7.8,24.60,West,270,0.0,0.0,19,0.00,,,0.00,WUHU216WMR200,2013-03-02 08:25:00,
2013-03-02 00:30:00,48.2,7.8,24.60,West,270,0.0,0.0,19,0.00,,,0.00,WUHU216WMR200,2013-03-02 08:30:00,
2013-03-02 00:35:00,48.2,7.8,24.60,ESE,112,0.0,0.0,19,0.00,,,0.00,WUHU216WMR200,2013-03-02 08:35:00,
2013-03-02 00:40:00,48.2,7.8,24.60,West,270,0.0,0.0,19,0.00,,,0.00,WUHU216WMR200,2013-03-02 08:40:00,
2013-03-02 00:45:00,48.2,7.8,24.60,WSW,247,0.0,0.0,19,0.00,,,0.00,WUHU216WMR200,2013-03-02 08:45:00,
2013-03-02 00:50:00,47.8,7.5,24.60,West,270,0.0,0.0,19,0.00,,,0.00,WUHU216WMR200,2013-03-02 08:50:00,
2013-03-02 00:55:00,47.8,7.5,24.60,SW,225,0.0,0.0,19,0.00,,,0.00,WUHU216WMR200,2013-03-02 08:55:00,
2013-03-02 01:00:00,47.7,7.4,24.60,West,270,0.0,1.6,19,0.00,,,0.00,WUHU216WMR200,2013-03-02 09:00:00,
2013-03-02 01:05:00,47.5,7.2,24.60,West,270,0.0,1.6,19,0.00,,,0.00,WUHU216WMR200,2013-03-02 09:05:00,
2013-03-02 01:10:00,47.5,7.2,24.60,WSW,247,0.0,0.0,19,0.00,,,0.00,WUHU216WMR200,2013-03-02 09:10:00,
2013-03-02 01:15:00,47.7,7.4,24.60,West,270,0.0,1.1,19,0.00,,,0.00,WUHU216WMR200,2013-03-02 09:15:00,
2013-03-02 01:20:00,47.8,7.5,24.60,West,270,1.3,1.6,19,0.00,,,0.00,WUHU216WMR200,2013-03-02 09:20:00,
2013-03-02 01:25:00,47.8,7.5,24.60,NNW,337,0.0,1.6,19,0.00,,,0.00,WUHU216WMR200,2013-03-02 09:25:00,
2013-03-02 01:30:00,47.7,7.4,24.60,West,270,0.0,1.6,19,0.00,,,0.00,WUHU216WMR200,2013-03-02 09:30:00,
2013-03-02 01:35:00,47.8,7.5,24.60,West,270,0.0,1.3,19,0.00,,,0.00,WUHU216WMR200,2013-03-02 09:35:00,
2013-03-02 01:40:00,47.8,7.5,24.60,WSW,247,0.0,0.9,19,0.00,,,0.00,WUHU216WMR200,2013-03-02 09:40:00,
2013-03-02 01:45:00,47.8,7.5,24.60,West,270,0.0,0.0,19,0.00,,,0.00,WUHU216WMR200,2013-03-02 09:45:00,
2013-03-02 01:50:00,48.0,7.6,24.60,WSW,247,0.0,0.0,19,0.00,,,0.00,WUHU216WMR200,2013-03-02 09:50:00,
2013-03-02 01:55:00,48.0,7.6,24.60,West,270,0.0,0.9,19,0.00,,,0.00,WUHU216WMR200,2013-03-02 09:55:00,
2013-03-02 02:00:00,48.6,8.1,24.60,West,270,0.0,1.3,19,0.00,,,0.00,WUHU216WMR200,2013-03-02 10:00:00,
2013-03-02 02:05:00,48.7,8.2,24.60,WSW,247,0.0,1.3,19,0.00,,,0.00,WUHU216WMR200,2013-03-02 10:05:00,
2013-03-02 02:10:00,48.7,8.2,24.60,West,270,0.0,1.3,19,0.00,,,0.00,WUHU216WMR200,2013-03-02 10:10:00,
2013-03-02 02:15:00,48.6,8.1,24.60,West,270,0.0,1.3,19,0.00,,,0.00,WUHU216WMR200,2013-03-02 10:15:00,
2013-03-02 02:20:00,48.7,8.2,24.60,West,270,0.0,0.9,19,0.00,,,0.00,WUHU216WMR200,2013-03-02 10:20:00,
2013-03-02 02:25:00,48.6,8.1,24.60,NNW,337,0.0,0.9,19,0.00,,,0.00,WUHU216WMR200,2013-03-02 10:25:00,
2013-03-02 02:30:00,48.6,8.1,24.60,West,270,0.0,0.0,19,0.00,,,0.00,WUHU216WMR200,2013-03-02 10:30:00,
2013-03-02 02:35:00,48.4,8.0,24.60,West,270,0.0,0.0,19,0.00,,,0.00,WUHU216WMR200,2013-03-02 10:35:00,
2013-03-02 02:40:00,48.4,8.0,24.60,West,270,0.0,0.0,19,0.00,,,0.00,WUHU216WMR200,2013-03-02 10:40:00,
2013-03-02 02:45:00,48.4,8.0,24.60,West,270,0.0,0.0,19,0.00,,,0.00,WUHU216WMR200,2013-03-02 10:45:00,
2013-03-02 02:50:00,48.2,7.8,24.60,West,270,0.0,0.0,19,0.00,,,0.00,WUHU216WMR200,2013-03-02 10:50:00,
2013-03-02 02:55:00,48.0,7.6,24.60,West,270,0.0,0.0,19,0.00,,,0.00,WUHU216WMR200,2013-03-02 10:55:00,
2013-03-02 03:00:00,47.8,7.5,24.60,South,180,0.0,0.0,19,0.00,,,0.00,WUHU216WMR200,2013-03-02 11:00:00,
2013-03-02 03:05:00,47.8,7.5,24.60,WSW,247,0.0,0.0,19,0.00,,,0.00,WUHU216WMR200,2013-03-02 11:05:00,
2013-03-02 03:10:00,47.8,7.5,24.60,ESE,112,0.0,0.0,19,0.00,,,0.00,WUHU216WMR200,2013-03-02 11:10:00,
2013-03-02 03:15:00,47.7,7.4,24.60,West,270,0.0,0.0,19,0.00,,,0.00,WUHU216WMR200,2013-03-02 11:15:00,
2013-03-02 03:20:00,47.5,7.2,24.60,SW,225,0.0,0.0,19,0.00,,,0.00,WUHU216WMR200,2013-03-02 11:20:00,
2013-03-02 03:25:00,47.5,7.2,24.60,SW,225,0.0,0.0,19,0.00,,,0.00,WUHU216WMR200,2013-03-02 11:25:00,
2013-03-02 03:30:00,47.5,7.2,24.60,SW,225,0.0,0.0,19,0.00,,,0.00,WUHU216WMR200,2013-03-02 11:30:00,
2013-03-02 03:35:00,47.7,7.4,24.60,SSE,157,0.0,0.0,19,0.00,,,0.00,WUHU216WMR200,2013-03-02 11:35:00,
2013-03-02 03:40:00,47.7,7.4,24.60,ESE,112,0.0,0.0,19,0.00,,,0.00,WUHU216WMR200,2013-03-02 11:40:00,
2013-03-02 03:45:00,47.5,7.2,24.60,WSW,247,0.0,0.0,19,0.00,,,0.00,WUHU216WMR200,2013-03-02 11:45:00,
2013-03-02 03:50:00,47.5,7.2,24.60,WSW,247,0.0,0.0,19,0.00,,,0.00,WUHU216WMR200,2013-03-02 11:50:00,
2013-03-02 03:55:00,47.5,7.2,24.60,East,90,0.0,0.0,19,0.00,,,0.00,WUHU216WMR200,2013-03-02 11:55:00,
2013-03-02 04:00:00,47.8,7.5,24.60,ESE,112,0.0,0.9,19,0.00,,,0.00,WUHU216WMR200,2013-03-02 12:00:00,
2013-03-02 04:05:00,47.8,7.5,24.60,East,90,0.0,0.9,19,0.00,,,0.00,WUHU216WMR200,2013-03-02 12:05:00,
2013-03-02 04:10:00,47.8,7.5,24.60,East,90,0.0,0.0,19,0.00,,,0.00,WUHU216WMR200,2013-03-02 12:10:00,
2013-03-02 04:15:00,48.4,8.0,24.60,East,90,1.1,1.6,19,0.00,,,0.00,WUHU216WMR200,2013-03-02 12:15:00,
2013-03-02 04:20:00,48.7,8.2,24.60,East,90,0.0,1.6,19,0.00,,,0.00,WUHU216WMR200,2013-03-02 12:20:00,
2013-03-02 04:25:00,48.9,8.4,24.60,East,90,0.0,1.6,19,0.00,,,0.00,WUHU216WMR200,2013-03-02 12:25:00,
2013-03-02 04:30:00,49.1,8.5,24.60,East,90,1.1,1.6,19,0.00,,,0.00,WUHU216WMR200,2013-03-02 12:30:00,
2013-03-02 04:35:00,50.0,9.3,24.60,East,90,2.5,3.4,19,0.00,,,0.00,WUHU216WMR200,2013-03-02 12:35:00,
2013-03-02 04:40:00,50.0,9.3,24.60,East,90,0.0,3.4,19,0.00,,,0.00,WUHU216WMR200,2013-03-02 12:40:00,
2013-03-02 04:45:00,50.4,9.6,24.60,East,90,0.0,2.5,19,0.00,,,0.00,WUHU216WMR200,2013-03-02 12:45:00,
2013-03-02 04:50:00,50.5,9.7,24.60,ESE,112,0.0,0.0,19,0.00,,,0.00,WUHU216WMR200,2013-03-02 12:50:00,
2013-03-02 04:55:00,49.8,9.1,24.60,SE,135,0.0,0.0,19,0.00,,,0.00,WUHU216WMR200,2013-03-02 12:55:00,
2013-03-02 05:00:00,49.1,8.5,24.60,East,90,0.0,0.0,19,0.00,,,0.00,WUHU216WMR200,2013-03-02 13:00:00,
2013-03-02 05:05:00,49.1,8.5,24.60,East,90,0.0,1.3,19,0.00,,,0.00,WUHU216WMR200,2013-03-02 13:05:00,
2013-03-02 05:10:00,49.6,8.9,24.60,ESE,112,0.0,1.3,19,0.00,,,0.00,WUHU216WMR200,2013-03-02 13:10:00,
2013-03-02 05:15:00,49.8,9.1,24.60,SE,135,0.9,2.5,19,0.00,,,0.00,WUHU216WMR200,2013-03-02 13:15:00,
2013-03-02 05:20:00,50.2,9.4,24.60,SE,135,0.0,2.5,19,0.00,,,0.00,WUHU216WMR200,2013-03-02 13:20:00,
2013-03-02 05:25:00,50.7,9.9,24.60,WSW,247,0.0,0.9,19,0.00,,,0.00,WUHU216WMR200,2013-03-02 13:25:00,
2013-03-02 05:30:00,51.1,10.2,24.60,SSW,202,0.0,0.9,19,0.00,,,0.00,WUHU216WMR200,2013-03-02 13:30:00,
2013-03-02 05:35:00,51.1,10.2,24.60,WSW,247,0.0,1.1,19,0.00,,,0.00,WUHU216WMR200,2013-03-02 13:35:00,
2013-03-02 05:40:00,51.3,10.4,24.60,East,90,2.0,2.7,19,0.00,,,0.00,WUHU216WMR200,2013-03-02 13:40:00,
2013-03-02 05:45:00,51.3,10.4,24.60,SE,135,0.0,2.7,19,0.00,,,0.00,WUHU216WMR200,2013-03-02 13:45:00,
2013-03-02 05:50:00,51.1,10.2,24.60,East,90,1.3,2.0,19,0.00,,,0.00,WUHU216WMR200,2013-03-02 13:50:00,
2013-03-02 05:55:00,51.1,10.2,24.60,West,270,0.9,3.1,19,0.00,,,0.00,WUHU216WMR200,2013-03-02 13:55:00,
2013-03-02 06:00:00,51.3,10.4,24.60,SW,225,2.2,3.1,19,0.00,,,0.00,WUHU216WMR200,2013-03-02 14:00:00,
2013-03-02 06:05:00,51.8,9.6,24.60,SSW,202,0.0,3.4,18,0.00,,,0.00,WUHU216WMR200,2013-03-02 14:05:00,
2013-03-02 06:10:00,52.0,9.7,24.60,North,0,1.3,3.4,18,0.00,,,0.00,WUHU216WMR200,2013-03-02 14:10:00,
2013-03-02 06:15:00,52.2,9.9,24.60,SW,225,2.0,2.7,18,0.00,,,0.00,WUHU216WMR200,2013-03-02 14:15:00,
2013-03-02 06:20:00,52.0,9.7,24.60,SW,225,2.0,3.1,18,0.00,,,0.00,WUHU216WMR200,2013-03-02 14:20:00,
2013-03-02 06:25:00,52.2,9.9,24.60,ENE,67,1.1,3.1,18,0.00,,,0.00,WUHU216WMR200,2013-03-02 14:25:00,
2013-03-02 06:30:00,52.3,10.0,24.60,SE,135,0.9,2.9,18,0.00,,,0.00,WUHU216WMR200,2013-03-02 14:30:00,
2013-03-02 06:35:00,52.2,9.9,24.60,SW,225,0.0,2.2,18,0.00,,,0.00,WUHU216WMR200,2013-03-02 14:35:00,
2013-03-02 06:40:00,52.3,10.0,24.60,SW,225,0.9,2.2,18,0.00,,,0.00,WUHU216WMR200,2013-03-02 14:40:00,
2013-03-02 06:45:00,52.3,10.0,24.60,South,180,1.6,2.5,18,0.00,,,0.00,WUHU216WMR200,2013-03-02 14:45:00,
2013-03-02 06:50:00,52.7,10.3,24.60,SW,225,0.0,2.7,18,0.00,,,0.00,WUHU216WMR200,2013-03-02 14:50:00,
2013-03-02 06:55:00,52.9,10.5,24.60,ESE,112,0.9,3.1,18,0.00,,,0.00,WUHU216WMR200,2013-03-02 14:55:00,
2013-03-02 07:00:00,53.1,10.6,24.60,WNW,292,1.3,3.1,18,0.00,,,0.00,WUHU216WMR200,2013-03-02 15:00:00,
2013-03-02 07:05:00,53.4,10.9,24.60,SE,135,0.0,2.7,18,0.00,,,0.00,WUHU216WMR200,2013-03-02 15:05:00,
2013-03-02 07:10:00,53.6,11.0,24.60,WSW,247,0.9,1.6,18,0.00,,,0.00,WUHU216WMR200,2013-03-02 15:10:00,
2013-03-02 07:15:00,54.0,11.4,24.60,ESE,112,0.0,1.6,18,0.00,,,0.00,WUHU216WMR200,2013-03-02 15:15:00,
2013-03-02 07:20:00,54.5,11.8,24.60,ESE,112,0.0,2.5,18,0.00,,,0.00,WUHU216WMR200,2013-03-02 15:20:00,
2013-03-02 07:25:00,54.9,12.1,24.60,ESE,112,1.6,2.5,18,0.00,,,0.00,WUHU216WMR200,2013-03-02 15:25:00,
2013-03-02 07:30:00,55.4,11.2,24.60,East,90,0.0,3.4,17,0.00,,,0.00,WUHU216WMR200,2013-03-02 15:30:00,
2013-03-02 07:35:00,55.8,11.6,24.60,ESE,112,2.5,3.8,17,0.00,,,0.00,WUHU216WMR200,2013-03-02 15:35:00,
2013-03-02 07:40:00,56.5,12.1,24.60,ESE,112,2.2,3.8,17,0.00,,,0.00,WUHU216WMR200,2013-03-02 15:40:00,
2013-03-02 07:45:00,56.8,12.4,24.60,ESE,112,0.0,3.6,17,0.00,,,0.00,WUHU216WMR200,2013-03-02 15:45:00,
2013-03-02 07:50:00,57.6,13.0,24.60,ESE,112,1.1,3.4,17,0.00,,,0.00,WUHU216WMR200,2013-03-02 15:50:00,
2013-03-02 07:55:00,58.1,13.4,24.60,SE,135,0.0,3.6,17,0.00,,,0.00,WUHU216WMR200,2013-03-02 15:55:00,
2013-03-02 08:00:00,59.4,14.5,24.60,SE,135,4.0,4.0,17,0.00,,,0.00,WUHU216WMR200,2013-03-02 16:00:00,
2013-03-02 08:05:00,61.2,14.6,24.60,ESE,112,2.9,5.4,16,0.00,,,0.00,WUHU216WMR200,2013-03-02 16:05:00,
2013-03-02 08:10:00,62.4,15.5,24.60,SE,135,1.3,5.4,16,0.00,,,0.00,WUHU216WMR200,2013-03-02 16:10:00,
2013-03-02 08:15:00,64.0,16.8,24.60,SSE,157,1.6,3.8,16,0.00,,,0.00,WUHU216WMR200,2013-03-02 16:15:00,
2013-03-02 08:20:00,65.5,16.5,24.60,SSW,202,2.0,3.6,15,0.00,,,0.00,WUHU216WMR200,2013-03-02 16:20:00,
2013-03-02 08:25:00,66.6,17.4,24.60,West,270,2.7,3.6,15,0.00,,,0.00,WUHU216WMR200,2013-03-02 16:25:00,
2013-03-02 08:30:00,67.5,18.1,24.60,SW,225,2.2,4.0,15,0.00,,,0.00,WUHU216WMR200,2013-03-02 16:30:00,
2013-03-02 08:35:00,68.7,19.1,24.60,South,180,2.0,4.0,15,0.00,,,0.00,WUHU216WMR200,2013-03-02 16:35:00,
2013-03-02 08:40:00,69.4,19.7,24.60,East,90,3.6,3.8,15,0.00,,,0.00,WUHU216WMR200,2013-03-02 16:40:00,
2013-03-02 08:45:00,69.6,19.8,24.60,SW,225,1.3,4.3,15,0.00,,,0.00,WUHU216WMR200,2013-03-02 16:45:00,
2013-03-02 08:50:00,69.6,19.8,24.60,South,180,0.0,5.4,15,0.00,,,0.00,WUHU216WMR200,2013-03-02 16:50:00,
2013-03-02 08:55:00,70.5,18.9,24.60,East,90,0.0,5.4,14,0.00,,,0.00,WUHU216WMR200,2013-03-02 16:55:00,
2013-03-02 09:00:00,71.2,19.4,24.60,East,90,3.1,5.4,14,0.00,,,0.00,WUHU216WMR200,2013-03-02 17:00:00,
2013-03-02 09:05:00,71.4,19.6,24.60,East,90,3.4,5.6,14,0.00,,,0.00,WUHU216WMR200,2013-03-02 17:05:00,
2013-03-02 09:10:00,72.0,20.1,24.60,East,90,1.1,5.6,14,0.00,,,0.00,WUHU216WMR200,2013-03-02 17:10:00,
2013-03-02 09:15:00,71.8,19.9,24.60,East,90,4.0,7.4,14,0.00,,,0.00,WUHU216WMR200,2013-03-02 17:15:00,
2013-03-02 09:20:00,70.9,19.2,24.60,East,90,6.0,8.1,14,0.00,,,0.00,WUHU216WMR200,2013-03-02 17:20:00,
2013-03-02 09:25:00,70.3,18.7,24.60,ESE,112,5.6,8.1,14,0.00,,,0.00,WUHU216WMR200,2013-03-02 17:25:00,
2013-03-02 09:30:00,69.4,19.7,24.60,ESE,112,6.3,10.3,15,0.00,,,0.00,WUHU216WMR200,2013-03-02 17:30:00,
2013-03-02 09:35:00,69.3,19.6,24.60,ESE,112,6.5,10.3,15,0.00,,,0.00,WUHU216WMR200,2013-03-02 17:35:00,
2013-03-02 09:40:00,68.5,18.9,24.60,ESE,112,4.9,12.3,15,0.00,,,0.00,WUHU216WMR200,2013-03-02 17:40:00,
2013-03-02 09:45:00,68.5,18.9,24.60,ESE,112,4.9,12.3,15,0.00,,,0.00,WUHU216WMR200,2013-03-02 17:45:00,
2013-03-02 09:50:00,69.6,19.8,24.60,East,90,6.3,12.3,15,0.00,,,0.00,WUHU216WMR200,2013-03-02 17:50:00,
2013-03-02 09:55:00,71.6,19.8,24.60,ESE,112,10.7,10.7,14,0.00,,,0.00,WUHU216WMR200,2013-03-02 17:55:00,
2013-03-02 10:00:00,72.3,20.3,24.60,ESE,112,4.5,10.7,14,0.00,,,0.00,WUHU216WMR200,2013-03-02 18:00:00,
2013-03-02 10:05:00,71.8,19.9,24.57,ESE,112,7.6,10.7,14,0.00,,,0.00,WUHU216WMR200,2013-03-02 18:05:00,
2013-03-02 10:10:00,72.3,20.3,24.57,ESE,112,3.6,11.0,14,0.00,,,0.00,WUHU216WMR200,2013-03-02 18:10:00,
2013-03-02 10:15:00,72.5,20.5,24.57,ESE,112,12.3,12.3,14,0.00,,,0.00,WUHU216WMR200,2013-03-02 18:15:00,
2013-03-02 10:20:00,72.0,20.1,24.57,SE,135,2.9,12.5,14,0.00,,,0.00,WUHU216WMR200,2013-03-02 18:20:00,
2013-03-02 10:25:00,72.3,20.3,24.57,ESE,112,7.2,12.5,14,0.00,,,0.00,WUHU216WMR200,2013-03-02 18:25:00,
2013-03-02 10:30:00,72.7,20.6,24.57,ENE,67,8.5,12.1,14,0.00,,,0.00,WUHU216WMR200,2013-03-02 18:30:00,
2013-03-02 10:35:00,72.1,20.2,24.54,SSE,157,7.8,10.5,14,0.00,,,0.00,WUHU216WMR200,2013-03-02 18:35:00,
2013-03-02 10:40:00,71.8,19.9,24.54,East,90,5.4,10.7,14,0.00,,,0.00,WUHU216WMR200,2013-03-02 18:40:00,
2013-03-02 10:45:00,72.1,20.2,24.54,East,90,6.0,10.7,14,0.00,,,0.00,WUHU216WMR200,2013-03-02 18:45:00,
2013-03-02 10:50:00,72.0,20.1,24.54,SE,135,3.1,8.1,14,0.00,,,0.00,WUHU216WMR200,2013-03-02 18:50:00,
2013-03-02 10:55:00,70.9,19.2,24.54,SE,135,4.7,12.5,14,0.00,,,0.00,WUHU216WMR200,2013-03-02 18:55:00,
2013-03-02 11:00:00,70.7,19.1,24.54,East,90,2.9,12.5,14,0.00,,,0.00,WUHU216WMR200,2013-03-02 19:00:00,
2013-03-02 11:05:00,71.1,19.4,24.51,North,0,3.1,11.4,14,0.00,,,0.00,WUHU216WMR200,2013-03-02 19:05:00,
2013-03-02 11:10:00,72.0,20.1,24.51,SSE,157,4.9,10.3,14,0.00,,,0.00,WUHU216WMR200,2013-03-02 19:10:00,
2013-03-02 11:15:00,71.4,19.6,24.51,ESE,112,7.8,12.3,14,0.00,,,0.00,WUHU216WMR200,2013-03-02 19:15:00,
2013-03-02 11:20:00,71.4,19.6,24.54,NNW,337,7.2,12.3,14,0.00,,,0.00,WUHU216WMR200,2013-03-02 19:20:00,
2013-03-02 11:25:00,71.2,19.4,24.54,ENE,67,6.0,11.0,14,0.00,,,0.00,WUHU216WMR200,2013-03-02 19:25:00,
2013-03-02 11:30:00,70.7,19.1,24.54,ESE,112,8.7,12.1,14,0.00,,,0.00,WUHU216WMR200,2013-03-02 19:30:00,
2013-03-02 11:35:00,70.3,18.7,24.54,SE,135,11.0,12.8,14,0.00,,,0.00,WUHU216WMR200,2013-03-02 19:35:00,
2013-03-02 11:40:00,70.9,19.2,24.54,SE,135,6.5,12.8,14,0.00,,,0.00,WUHU216WMR200,2013-03-02 19:40:00,
2013-03-02 11:45:00,68.9,19.3,24.54,ESE,112,14.3,14.3,15,0.00,,,0.00,WUHU216WMR200,2013-03-02 19:45:00,
2013-03-02 11:50:00,68.4,18.9,24.54,SE,135,6.0,14.3,15,0.00,,,0.00,WUHU216WMR200,2013-03-02 19:50:00,
2013-03-02 11:55:00,69.1,19.4,24.54,SE,135,4.3,14.1,15,0.00,,,0.00,WUHU216WMR200,2013-03-02 19:55:00,
2013-03-02 12:00:00,68.4,18.9,24.54,ESE,112,11.4,14.1,15,0.00,,,0.00,WUHU216WMR200,2013-03-02 20:00:00,
2013-03-02 12:05:00,67.5,18.1,24.51,WSW,247,5.4,16.3,15,0.00,,,0.00,WUHU216WMR200,2013-03-02 20:05:00,
2013-03-02 12:10:00,68.2,18.7,24.51,SE,135,12.1,16.3,15,0.00,,,0.00,WUHU216WMR200,2013-03-02 20:10:00,
2013-03-02 12:15:00,67.5,18.1,24.51,East,90,17.7,17.7,15,0.00,,,0.00,WUHU216WMR200,2013-03-02 20:15:00,
2013-03-02 12:20:00,68.0,18.5,24.45,ESE,112,9.6,17.7,15,0.00,,,0.00,WUHU216WMR200,2013-03-02 20:20:00,
2013-03-02 12:25:00,67.6,18.2,24.45,SE,135,15.4,17.7,15,0.00,,,0.00,WUHU216WMR200,2013-03-02 20:25:00,
2013-03-02 12:30:00,68.2,18.7,24.45,SSE,157,10.7,17.2,15,0.00,,,0.00,WUHU216WMR200,2013-03-02 20:30:00,
2013-03-02 12:35:00,68.2,18.7,24.48,SSE,157,3.6,17.0,15,0.00,,,0.00,WUHU216WMR200,2013-03-02 20:35:00,
2013-03-02 12:40:00,69.1,19.4,24.48,SE,135,13.0,14.3,15,0.00,,,0.00,WUHU216WMR200,2013-03-02 20:40:00,
2013-03-02 12:45:00,68.7,19.1,24.48,SSE,157,12.1,14.3,15,0.00,,,0.00,WUHU216WMR200,2013-03-02 20:45:00,
2013-03-02 12:50:00,68.7,19.1,24.45,SSE,157,10.3,15.4,15,0.00,,,0.00,WUHU216WMR200,2013-03-02 20:50:00,
2013-03-02 12:55:00,68.0,18.5,24.45,South,180,6.3,15.4,15,0.00,,,0.00,WUHU216WMR200,2013-03-02 20:55:00,
2013-03-02 13:00:00,67.8,18.4,24.45,SE,135,9.6,13.6,15,0.00,,,0.00,WUHU216WMR200,2013-03-02 21:00:00,
2013-03-02 13:05:00,69.6,19.8,24.45,ESE,112,5.4,13.6,15,0.00,,,0.00,WUHU216WMR200,2013-03-02 21:05:00,
2013-03-02 13:10:00,69.4,19.7,24.45,SE,135,12.3,14.1,15,0.00,,,0.00,WUHU216WMR200,2013-03-02 21:10:00,
2013-03-02 13:15:00,70.0,18.5,24.45,SE,135,6.0,14.1,14,0.00,,,0.00,WUHU216WMR200,2013-03-02 21:15:00,
2013-03-02 13:20:00,69.8,18.3,24.45,SSE,157,6.3,13.2,14,0.00,,,0.00,WUHU216WMR200,2013-03-02 21:20:00,
2013-03-02 13:25:00,68.7,19.1,24.45,East,90,14.5,15.7,15,0.00,,,0.00,WUHU216WMR200,2013-03-02 21:25:00,
2013-03-02 13:30:00,69.4,19.7,24.45,East,90,3.4,15.7,15,0.00,,,0.00,WUHU216WMR200,2013-03-02 21:30:00,
2013-03-02 13:35:00,68.9,19.3,24.45,SSE,157,12.8,14.5,15,0.00,,,0.00,WUHU216WMR200,2013-03-02 21:35:00,
2013-03-02 13:40:00,69.3,19.6,24.45,SE,135,6.3,14.5,15,0.00,,,0.00,WUHU216WMR200,2013-03-02 21:40:00,
2013-03-02 13:45:00,69.6,19.8,24.45,SE,135,11.0,14.5,15,0.00,,,0.00,WUHU216WMR200,2013-03-02 21:45:00,
2013-03-02 13:50:00,67.8,18.4,24.45,SE,135,6.3,14.5,15,0.00,,,0.00,WUHU216WMR200,2013-03-02 21:50:00,
2013-03-02 13:55:00,69.3,19.6,24.45,SE,135,9.8,12.1,15,0.00,,,0.00,WUHU216WMR200,2013-03-02 21:55:00,
2013-03-02 14:00:00,67.8,18.4,24.45,SSE,157,4.7,14.5,15,0.00,,,0.00,WUHU216WMR200,2013-03-02 22:00:00,
2013-03-02 14:05:00,66.9,17.7,24.45,South,180,5.6,14.5,15,0.00,,,0.00,WUHU216WMR200,2013-03-02 22:05:00,
2013-03-02 14:10:00,67.5,18.1,24.45,SSE,157,8.5,15.2,15,0.00,,,0.00,WUHU216WMR200,2013-03-02 22:10:00,
2013-03-02 14:15:00,67.8,18.4,24.45,SE,135,7.8,15.2,15,0.00,,,0.00,WUHU216WMR200,2013-03-02 22:15:00,
2013-03-02 14:20:00,68.5,18.9,24.48,ESE,112,9.2,15.2,15,0.00,,,0.00,WUHU216WMR200,2013-03-02 22:20:00,
2013-03-02 14:25:00,65.5,16.5,24.48,SE,135,9.6,11.4,15,0.00,,,0.00,WUHU216WMR200,2013-03-02 22:25:00,
2013-03-02 14:30:00,64.9,16.1,24.48,SE,135,12.8,13.9,15,0.00,,,0.00,WUHU216WMR200,2013-03-02 22:30:00,
2013-03-02 14:35:00,67.1,17.8,24.48,SE,135,8.7,13.9,15,0.00,,,0.00,WUHU216WMR200,2013-03-02 22:35:00,
2013-03-02 14:40:00,67.6,18.2,24.48,ESE,112,10.1,12.8,15,0.00,,,0.00,WUHU216WMR200,2013-03-02 22:40:00,
2013-03-02 14:45:00,64.8,16.0,24.48,South,180,8.7,12.8,15,0.00,,,0.00,WUHU216WMR200,2013-03-02 22:45:00,
2013-03-02 14:50:00,64.2,17.0,24.48,SE,135,10.7,14.5,16,0.00,,,0.00,WUHU216WMR200,2013-03-02 22:50:00,
2013-03-02 14:55:00,65.1,16.2,24.48,SE,135,13.2,14.8,15,0.00,,,0.00,WUHU216WMR200,2013-03-02 22:55:00,
2013-03-02 15:00:00,67.1,17.8,24.48,SE,135,5.6,14.8,15,0.00,,,0.00,WUHU216WMR200,2013-03-02 23:00:00,
2013-03-02 15:05:00,66.0,16.9,24.48,SSE,157,4.9,13.2,15,0.00,,,0.00,WUHU216WMR200,2013-03-02 23:05:00,
2013-03-02 15:10:00,64.4,15.7,24.48,South,180,6.0,12.8,15,0.00,,,0.00,WUHU216WMR200,2013-03-02 23:10:00,
2013-03-02 15:15:00,64.8,16.0,24.48,SSE,157,6.0,14.5,15,0.00,,,0.00,WUHU216WMR200,2013-03-02 23:15:00,
2013-03-02 15:20:00,65.1,16.2,24.48,SE,135,7.6,14.5,15,0.00,,,0.00,WUHU216WMR200,2013-03-02 23:20:00,
2013-03-02 15:25:00,64.6,15.8,24.48,SE,135,4.9,11.0,15,0.00,,,0.00,WUHU216WMR200,2013-03-02 23:25:00,
2013-03-02 15:30:00,64.8,16.0,24.48,West,270,6.9,12.5,15,0.00,,,0.00,WUHU216WMR200,2013-03-02 23:30:00,
2013-03-02 15:35:00,66.4,17.3,24.45,SE,135,4.0,12.5,15,0.00,,,0.00,WUHU216WMR200,2013-03-02 23:35:00,
2013-03-02 15:40:00,66.2,17.1,24.45,SSE,157,4.0,9.8,15,0.00,,,0.00,WUHU216WMR200,2013-03-02 23:40:00,
2013-03-02 15:45:00,66.0,16.9,24.45,NW,315,6.5,10.7,15,0.00,,,0.00,WUHU216WMR200,2013-03-02 23:45:00,
2013-03-02 15:50:00,64.4,15.7,24.45,NE,45,6.3,10.7,15,0.00,,,0.00,WUHU216WMR200,2013-03-02 23:50:00,
2013-03-02 15:55:00,63.0,16.0,24.45,SE,135,4.9,10.5,16,0.00,,,0.00,WUHU216WMR200,2013-03-02 23:55:00,
2013-03-02 16:00:00,61.7,15.0,24.45,SE,135,4.3,11.0,16,0.00,,,0.00,WUHU216WMR200,2013-03-03 00:00:00,
2013-03-02 16:05:00,61.5,14.8,24.45,SE,135,2.9,11.0,16,0.00,,,0.00,WUHU216WMR200,2013-03-03 00:05:00,
2013-03-02 16:10:00,61.3,14.6,24.45,SE,135,4.9,9.6,16,0.00,,,0.00,WUHU216WMR200,2013-03-03 00:10:00,
2013-03-02 16:15:00,63.7,16.6,24.45,SE,135,4.9,9.6,16,0.00,,,0.00,WUHU216WMR200,2013-03-03 00:15:00,
2013-03-02 16:20:00,64.2,17.0,24.42,SSE,157,3.6,7.2,16,0.00,,,0.00,WUHU216WMR200,2013-03-03 00:20:00,
2013-03-02 16:25:00,64.2,17.0,24.42,SE,135,4.7,7.8,16,0.00,,,0.00,WUHU216WMR200,2013-03-03 00:25:00,
2013-03-02 16:30:00,63.1,16.1,24.42,South,180,2.0,8.5,16,0.00,,,0.00,WUHU216WMR200,2013-03-03 00:30:00,
2013-03-02 16:35:00,61.9,15.1,24.42,ESE,112,3.1,8.5,16,0.00,,,0.00,WUHU216WMR200,2013-03-03 00:35:00,
2013-03-02 16:40:00,60.8,14.2,24.42,NE,45,7.8,9.4,16,0.00,,,0.00,WUHU216WMR200,2013-03-03 00:40:00,
2013-03-02 16:45:00,59.5,14.6,24.42,SE,135,8.5,12.1,17,0.00,,,0.00,WUHU216WMR200,2013-03-03 00:45:00,
2013-03-02 16:50:00,58.8,14.0,24.42,SE,135,6.5,12.1,17,0.00,,,0.00,WUHU216WMR200,2013-03-03 00:50:00,
2013-03-02 16:55:00,58.1,13.4,24.42,ESE,112,5.4,9.2,17,0.00,,,0.00,WUHU216WMR200,2013-03-03 00:55:00,
2013-03-02 17:00:00,57.6,13.0,24.42,SSE,157,5.4,10.7,17,0.00,,,0.00,WUHU216WMR200,2013-03-03 01:00:00,
2013-03-02 17:05:00,57.2,12.7,24.45,SSE,157,4.9,10.7,17,0.00,,,0.00,WUHU216WMR200,2013-03-03 01:05:00,
2013-03-02 17:10:00,57.7,13.1,24.45,NNE,22,5.6,11.0,17,0.00,,,0.00,WUHU216WMR200,2013-03-03 01:10:00,
2013-03-02 17:15:00,57.7,13.1,24.45,SE,135,8.1,12.8,17,0.00,,,0.00,WUHU216WMR200,2013-03-03 01:15:00,
2013-03-02 17:20:00,57.2,12.7,24.48,SE,135,8.1,12.8,17,0.00,,,0.00,WUHU216WMR200,2013-03-03 01:20:00,
2013-03-02 17:25:00,56.8,12.4,24.48,SE,135,3.4,10.3,17,0.00,,,0.00,WUHU216WMR200,2013-03-03 01:25:00,
2013-03-02 17:30:00,56.5,12.1,24.48,SSE,157,6.3,11.0,17,0.00,,,0.00,WUHU216WMR200,2013-03-03 01:30:00,
2013-03-02 17:35:00,56.1,11.8,24.48,West,270,7.4,11.0,17,0.00,,,0.00,WUHU216WMR200,2013-03-03 01:35:00,
2013-03-02 17:40:00,55.8,11.6,24.48,SE,135,4.0,10.7,17,0.00,,,0.00,WUHU216WMR200,2013-03-03 01:40:00,
2013-03-02 17:45:00,55.4,11.2,24.48,SE,135,6.3,10.7,17,0.00,,,0.00,WUHU216WMR200,2013-03-03 01:45:00,
2013-03-02 17:50:00,54.9,12.1,24.48,SSE,157,4.5,9.8,18,0.00,,,0.00,WUHU216WMR200,2013-03-03 01:50:00,
2013-03-02 17:55:00,54.5,11.8,24.48,SSE,157,9.4,10.5,18,0.00,,,0.00,WUHU216WMR200,2013-03-03 01:55:00,
2013-03-02 18:00:00,54.3,11.6,24.48,SE,135,7.4,11.0,18,0.00,,,0.00,WUHU216WMR200,2013-03-03 02:00:00,
2013-03-02 18:05:00,54.0,11.4,24.48,SE,135,8.1,11.0,18,0.00,,,0.00,WUHU216WMR200,2013-03-03 02:05:00,
2013-03-02 18:10:00,53.8,11.2,24.48,SE,135,6.5,10.3,18,0.00,,,0.00,WUHU216WMR200,2013-03-03 02:10:00,
2013-03-02 18:15:00,53.4,10.9,24.48,SE,135,5.8,10.1,18,0.00,,,0.00,WUHU216WMR200,2013-03-03 02:15:00,
2013-03-02 18:20:00,53.2,10.7,24.48,SSE,157,7.6,10.7,18,0.00,,,0.00,WUHU216WMR200,2013-03-03 02:20:00,
2013-03-02 18:25:00,52.9,10.5,24.48,SSW,202,6.0,10.7,18,0.00,,,0.00,WUHU216WMR200,2013-03-03 02:25:00,
2013-03-02 18:30:00,52.7,10.3,24.48,WSW,247,6.0,10.3,18,0.00,,,0.00,WUHU216WMR200,2013-03-03 02:30:00,
2013-03-02 18:35:00,52.7,10.3,24.48,ESE,112,6.3,11.0,18,0.00,,,0.00,WUHU216WMR200,2013-03-03 02:35:00,
2013-03-02 18:40:00,52.3,10.0,24.48,SSE,157,9.2,11.0,18,0.00,,,0.00,WUHU216WMR200,2013-03-03 02:40:00,
2013-03-02 18:45:00,52.3,10.0,24.48,SSE,157,9.6,12.1,18,0.00,,,0.00,WUHU216WMR200,2013-03-03 02:45:00,
2013-03-02 18:50:00,52.2,9.9,24.48,South,180,7.8,12.1,18,0.00,,,0.00,WUHU216WMR200,2013-03-03 02:50:00,
2013-03-02 18:55:00,51.8,9.6,24.48,SE,135,6.5,10.7,18,0.00,,,0.00,WUHU216WMR200,2013-03-03 02:55:00,
2013-03-02 19:00:00,51.8,9.6,24.48,SSE,157,7.2,10.3,18,0.00,,,0.00,WUHU216WMR200,2013-03-03 03:00:00,
2013-03-02 19:05:00,51.6,10.6,24.48,SE,135,3.8,9.6,19,0.00,,,0.00,WUHU216WMR200,2013-03-03 03:05:00,
2013-03-02 19:10:00,51.4,10.4,24.48,SSE,157,8.1,9.6,19,0.00,,,0.00,WUHU216WMR200,2013-03-03 03:10:00,
2013-03-02 19:15:00,51.4,10.4,24.48,SE,135,6.3,8.7,19,0.00,,,0.00,WUHU216WMR200,2013-03-03 03:15:00,
2013-03-02 19:20:00,51.4,10.4,24.48,SSW,202,7.6,10.1,19,0.00,,,0.00,WUHU216WMR200,2013-03-03 03:20:00,
2013-03-02 19:25:00,51.6,10.6,24.48,South,180,12.3,12.3,19,0.00,,,0.00,WUHU216WMR200,2013-03-03 03:25:00,
2013-03-02 19:30:00,51.4,10.4,24.48,ESE,112,8.7,12.3,19,0.00,,,0.00,WUHU216WMR200,2013-03-03 03:30:00,
2013-03-02 19:35:00,51.3,10.4,24.48,SSE,157,7.6,10.3,19,0.00,,,0.00,WUHU216WMR200,2013-03-03 03:35:00,
2013-03-02 19:40:00,51.1,12.4,24.48,SE,135,8.5,12.5,21,0.00,,,0.00,WUHU216WMR200,2013-03-03 03:40:00,
2013-03-02 19:45:00,50.7,12.1,24.48,SSE,157,10.1,13.2,21,0.00,,,0.00,WUHU216WMR200,2013-03-03 03:45:00,
2013-03-02 19:50:00,50.7,12.1,24.48,SE,135,10.5,13.2,21,0.00,,,0.00,WUHU216WMR200,2013-03-03 03:50:00,
2013-03-02 19:55:00,50.5,11.9,24.48,SSE,157,7.4,13.0,21,0.00,,,0.00,WUHU216WMR200,2013-03-03 03:55:00,
2013-03-02 20:00:00,50.5,11.9,24.48,SE,135,11.4,14.1,21,0.00,,,0.00,WUHU216WMR200,2013-03-03 04:00:00,
2013-03-02 20:05:00,50.4,11.8,24.48,ESE,112,7.8,14.1,21,0.00,,,0.00,WUHU216WMR200,2013-03-03 04:05:00,
2013-03-02 20:10:00,50.2,11.7,24.48,SE,135,12.3,13.4,21,0.00,,,0.00,WUHU216WMR200,2013-03-03 04:10:00,
2013-03-02 20:15:00,50.2,11.7,24.48,SW,225,11.0,13.4,21,0.00,,,0.00,WUHU216WMR200,2013-03-03 04:15:00,
2013-03-02 20:20:00,50.0,14.5,24.45,SE,135,6.5,12.3,24,0.00,,,0.00,WUHU216WMR200,2013-03-03 04:20:00,
2013-03-02 20:25:00,50.2,14.6,24.45,SSE,157,8.5,14.8,24,0.00,,,0.00,WUHU216WMR200,2013-03-03 04:25:00,
2013-03-02 20:30:00,50.2,14.6,24.45,SSE,157,15.9,15.9,24,0.00,,,0.00,WUHU216WMR200,2013-03-03 04:30:00,
2013-03-02 20:35:00,50.2,14.6,24.48,SE,135,11.9,15.9,24,0.00,,,0.00,WUHU216WMR200,2013-03-03 04:35:00,
2013-03-02 20:40:00,50.0,14.5,24.48,SE,135,12.1,15.9,24,0.00,,,0.00,WUHU216WMR200,2013-03-03 04:40:00,
2013-03-02 20:45:00,50.2,14.6,24.48,SSE,157,11.0,19.2,24,0.00,,,0.00,WUHU216WMR200,2013-03-03 04:45:00,
2013-03-02 20:50:00,50.2,14.6,24.45,SE,135,10.7,19.2,24,0.00,,,0.00,WUHU216WMR200,2013-03-03 04:50:00,
2013-03-02 20:55:00,50.4,11.8,24.45,SE,135,14.1,17.0,21,0.00,,,0.00,WUHU216WMR200,2013-03-03 04:55:00,
2013-03-02 21:00:00,50.4,11.8,24.45,West,270,11.9,16.8,21,0.00,,,0.00,WUHU216WMR200,2013-03-03 05:00:00,
2013-03-02 21:05:00,50.4,11.8,24.48,South,180,10.7,16.8,21,0.00,,,0.00,WUHU216WMR200,2013-03-03 05:05:00,
2013-03-02 21:10:00,50.5,11.9,24.48,SSW,202,6.0,13.6,21,0.00,,,0.00,WUHU216WMR200,2013-03-03 05:10:00,
2013-03-02 21:15:00,50.5,11.9,24.48,SSE,157,6.0,14.5,21,0.00,,,0.00,WUHU216WMR200,2013-03-03 05:15:00,
2013-03-02 21:20:00,50.5,11.9,24.48,SSW,202,4.7,14.5,21,0.00,,,0.00,WUHU216WMR200,2013-03-03 05:20:00,
2013-03-02 21:25:00,50.4,11.8,24.48,SSE,157,8.7,14.1,21,0.00,,,0.00,WUHU216WMR200,2013-03-03 05:25:00,
2013-03-02 21:30:00,50.5,9.7,24.48,SE,135,4.3,11.9,19,0.00,,,0.00,WUHU216WMR200,2013-03-03 05:30:00,
2013-03-02 21:35:00,50.5,9.7,24.48,WNW,292,1.3,14.3,19,0.00,,,0.00,WUHU216WMR200,2013-03-03 05:35:00,
2013-03-02 21:40:00,50.7,9.9,24.48,SSE,157,7.4,17.7,19,0.00,,,0.00,WUHU216WMR200,2013-03-03 05:40:00,
2013-03-02 21:45:00,50.7,9.9,24.48,SSE,157,2.9,17.7,19,0.00,,,0.00,WUHU216WMR200,2013-03-03 05:45:00,
2013-03-02 21:50:00,50.4,9.6,24.48,SE,135,8.7,12.3,19,0.00,,,0.00,WUHU216WMR200,2013-03-03 05:50:00,
2013-03-02 21:55:00,50.5,9.7,24.48,SSE,157,5.8,11.2,19,0.00,,,0.00,WUHU216WMR200,2013-03-03 05:55:00,
2013-03-02 22:00:00,50.4,9.6,24.48,SSE,157,7.2,11.2,19,0.00,,,0.00,WUHU216WMR200,2013-03-03 06:00:00,
2013-03-02 22:05:00,50.5,9.7,24.48,South,180,4.0,15.2,19,0.00,,,0.00,WUHU216WMR200,2013-03-03 06:05:00,
2013-03-02 22:10:00,50.7,9.9,24.48,SSE,157,6.0,15.2,19,0.00,,,0.00,WUHU216WMR200,2013-03-03 06:10:00,
2013-03-02 22:15:00,50.9,10.0,24.48,South,180,9.8,15.4,19,0.00,,,0.00,WUHU216WMR200,2013-03-03 06:15:00,
2013-03-02 22:20:00,50.9,10.0,24.48,South,180,8.5,15.4,19,0.00,,,0.00,WUHU216WMR200,2013-03-03 06:20:00,
2013-03-02 22:25:00,50.7,9.9,24.48,SE,135,3.4,13.2,19,0.00,,,0.00,WUHU216WMR200,2013-03-03 06:25:00,
2013-03-02 22:30:00,50.5,9.7,24.48,SE,135,4.0,12.5,19,0.00,,,0.00,WUHU216WMR200,2013-03-03 06:30:00,
2013-03-02 22:35:00,50.7,9.9,24.48,South,180,5.6,14.5,19,0.00,,,0.00,WUHU216WMR200,2013-03-03 06:35:00,
2013-03-02 22:40:00,50.9,10.0,24.48,NW,315,5.4,14.5,19,0.00,,,0.00,WUHU216WMR200,2013-03-03 06:40:00,
2013-03-02 22:45:00,51.1,10.2,24.48,SSE,157,9.6,13.2,19,0.00,,,0.00,WUHU216WMR200,2013-03-03 06:45:00,
2013-03-02 22:50:00,50.9,10.0,24.48,SSE,157,8.7,14.1,19,0.00,,,0.00,WUHU216WMR200,2013-03-03 06:50:00,
2013-03-02 22:55:00,50.5,9.7,24.48,South,180,9.4,14.1,19,0.00,,,0.00,WUHU216WMR200,2013-03-03 06:55:00,
2013-03-02 23:00:00,50.5,9.7,24.48,SSE,157,11.0,13.2,19,0.00,,,0.00,WUHU216WMR200,2013-03-03 07:00:00,
2013-03-02 23:05:00,50.7,9.9,24.48,South,180,10.7,15.2,19,0.00,,,0.00,WUHU216WMR200,2013-03-03 07:05:00,
2013-03-02 23:10:00,50.9,10.0,24.48,South,180,9.6,15.2,19,0.00,,,0.00,WUHU216WMR200,2013-03-03 07:10:00,
2013-03-02 23:15:00,50.5,9.7,24.48,South,180,8.1,11.2,19,0.00,,,0.00,WUHU216WMR200,2013-03-03 07:15:00,
2013-03-02 23:20:00,50.2,9.4,24.48,SSE,157,5.4,10.7,19,0.00,,,0.00,WUHU216WMR200,2013-03-03 07:20:00,
2013-03-02 23:25:00,50.2,9.4,24.48,SE,135,10.7,13.0,19,0.00,,,0.00,WUHU216WMR200,2013-03-03 07:25:00,
2013-03-02 23:30:00,50.2,9.4,24.48,SSE,157,6.5,13.2,19,0.00,,,0.00,WUHU216WMR200,2013-03-03 07:30:00,
2013-03-02 23:35:00,50.2,9.4,24.48,SSE,157,10.1,13.2,19,0.00,,,0.00,WUHU216WMR200,2013-03-03 07:35:00,
2013-03-02 23:40:00,50.4,9.6,24.48,SSE,157,10.1,15.9,19,0.00,,,0.00,WUHU216WMR200,2013-03-03 07:40:00,
2013-03-02 23:45:00,50.4,9.6,24.48,SSE,157,5.8,15.9,19,0.00,,,0.00,WUHU216WMR200,2013-03-03 07:45:00,
2013-03-02 23:50:00,50.2,9.4,24.48,SSE,157,6.3,12.5,19,0.00,,,0.00,WUHU216WMR200,2013-03-03 07:50:00,
2013-03-02 23:55:00,50.0,9.3,24.48,SSE,157,7.6,13.2,19,0.00,,,0.00,WUHU216WMR200,2013-03-03 07:55:00,